Portland, ME

12:22 AM EDT on August 17, 2017 (GMT -0400)
Portland International

Weather History for KPWM - February, 2013

Change the Weather History Date:

Monday, February 25, 2013

  Actual Average Record
Temperature  
Mean Temperature 33 °F 28 °F  
Max Temperature 41 °F 37 °F 53 °F (2016)
Min Temperature 25 °F 19 °F -13 °F (1959)
Degree Days  
Heating Degree Days 32 37  
Month to date heating degree days 939 997  
Since 1 July heating degree days 4510 4933  
Cooling Degree Days 0 0  
Month to date cooling degree days 0 0  
Year to date cooling degree days 0 0  
Moisture  
Dew Point 27 °F    
Average Humidity 72    
Maximum Humidity 92    
Minimum Humidity 51    
Precipitation  
Precipitation T in 0.13 in 3.83 in (2010)
Month to date precipitation 4.80 2.86  
Year to date precipitation 6.16 6.24  
Snow  
Snow T in 0.40 in 15.50 in (1966)
Month to date snowfall 46.6 10.8  
Since 1 July snowfall 81.6 45.1  
Snow Depth 11.00 in    
Sea Level Pressure  
Sea Level Pressure 30.08 in    
Wind  
Wind Speed 4 mph (North)    
Max Wind Speed 12 mph    
Max Gust Speed 16 mph    
Visibility 9 miles    
Events Snow    
T = Trace of Precipitation, MM = Missing Value Source: NWS Daily Summary

Daily Weather History Graph

Daily Weather History Graph

Search for Another Location

Airport or City:

Trip Planner

Search our weather history database for the weather conditions in past years. The results will help you decide how hot, cold, wet, or windy it might be!

Date:

Astronomy

Feb. 25, 2013 Rise Set
Actual Time 6:24 AM EST 5:25 PM EST
Civil Twilight 5:55 AM EST 5:54 PM EST
Nautical Twilight 5:21 AM EST 6:27 PM EST
Astronomical Twilight 4:48 AM EST 7:00 PM EST
Moon 5:37 PM EST (2/25) 5:51 AM EST (2/25)
Length of Visible Light 11h 58m
Length of Day
11h 01m
Full, 100% of the Moon is Illuminated
Feb 25
Full
Feb 25
Full
Mar 4
Last Quarter
Mar 11
New
Mar 19
First Quarter

Hourly Weather History & Observations

Time (EST) Temp. Windchill Dew Point Humidity Pressure Visibility Wind Dir Wind Speed Gust Speed Precip Events Conditions
12:10 AM 28.9 °F 21.1 °F 27.0 °F 92% 29.90 in 2.5 mi North 8.1 mph - 0.00 in Snow Light Snow
12:21 AM 28.9 °F 20.4 °F 27.0 °F 92% 29.91 in 3.0 mi North 9.2 mph - 0.00 in Snow Light Snow
12:29 AM 28.9 °F 21.9 °F 27.0 °F 92% 29.91 in 3.0 mi North 6.9 mph - 0.00 in Snow Light Snow
12:51 AM 28.9 °F 21.9 °F 27.0 °F 92% 29.92 in 4.0 mi North 6.9 mph - 0.00 in Snow Light Snow
1:51 AM 28.4 °F 19.7 °F 26.6 °F 93% 29.93 in 4.0 mi North 9.2 mph - N/A Snow Light Snow
2:51 AM 27.0 °F 21.6 °F 25.0 °F 92% 29.94 in 10.0 mi NNW 4.6 mph - 0.00 in   Overcast
3:51 AM 28.0 °F 21.7 °F 25.0 °F 88% 29.96 in 10.0 mi NNW 5.8 mph - N/A   Overcast
4:51 AM 27.0 °F 21.6 °F 24.1 °F 89% 29.98 in 10.0 mi North 4.6 mph - N/A   Mostly Cloudy
5:51 AM 26.1 °F 21.9 °F 23.0 °F 88% 30.01 in 10.0 mi NW 3.5 mph - N/A   Mostly Cloudy
6:51 AM 27.0 °F 20.5 °F 24.1 °F 89% 30.03 in 10.0 mi North 5.8 mph - N/A   Scattered Clouds
7:51 AM 30.0 °F 26.5 °F 25.0 °F 82% 30.05 in 10.0 mi North 3.5 mph - N/A   Scattered Clouds
8:51 AM 30.9 °F 26.2 °F 24.1 °F 76% 30.07 in 10.0 mi North 4.6 mph - N/A   Partly Cloudy
9:51 AM 33.1 °F 26.1 °F 26.1 °F 75% 30.09 in 10.0 mi North 8.1 mph - N/A   Partly Cloudy
10:51 AM 34.0 °F 26.6 °F 27.0 °F 75% 30.10 in 10.0 mi North 9.2 mph - N/A   Partly Cloudy
11:51 AM 36.0 °F 32.1 °F 27.0 °F 70% 30.11 in 10.0 mi NNW 4.6 mph - N/A   Mostly Cloudy
12:51 PM 37.9 °F 33.5 °F 27.0 °F 65% 30.10 in 10.0 mi North 5.8 mph - N/A   Scattered Clouds
1:51 PM 37.9 °F 32.1 °F 26.1 °F 62% 30.11 in 10.0 mi North 8.1 mph - N/A   Mostly Cloudy
2:51 PM 39.0 °F 36.8 °F 26.1 °F 60% 30.14 in 10.0 mi North 3.5 mph - N/A   Mostly Cloudy
3:51 PM 41.0 °F 39.0 °F 25.0 °F 53% 30.15 in 10.0 mi NNW 3.5 mph - N/A   Overcast
4:51 PM 39.0 °F 36.8 °F 26.1 °F 60% 30.17 in 10.0 mi NW 3.5 mph - N/A   Overcast
5:51 PM 36.0 °F 32.1 °F 28.9 °F 76% 30.18 in 10.0 mi SSE 4.6 mph - N/A   Overcast
6:51 PM 34.0 °F - 28.0 °F 79% 30.19 in 10.0 mi Calm Calm - N/A   Overcast
7:51 PM 33.1 °F - 28.0 °F 82% 30.20 in 10.0 mi Calm Calm - N/A   Overcast
8:51 PM 33.1 °F - 30.0 °F 89% 30.22 in 10.0 mi Calm Calm - N/A   Overcast
9:51 PM 34.0 °F - 30.0 °F 85% 30.22 in 10.0 mi Calm Calm - N/A   Overcast
10:51 PM 34.0 °F - 30.0 °F 85% 30.22 in 8.0 mi Calm Calm - N/A   Overcast
11:51 PM 34.0 °F - 30.0 °F 85% 30.25 in 8.0 mi Calm Calm - N/A   Overcast